Regional Weather Roundup
Issued by NWS Mobile, AL

Home | Current Version | Previous Version | Text Only | Print | Product List | Glossary On
Versions: 1 2 3 4 5 6 7 8 9 10 11 12 13 14 15 16 17 18 19 20 21 22 23 24 25 26 27
000
ASUS44 KMOB 271412
RWRMOB
REGIONAL WEATHER ROUNDUP
NATIONAL WEATHER SERVICE MOBILE AL
900 AM CDT FRI MAY 27 2016

NOTE: "FAIR" INDICATES FEW OR NO CLOUDS BELOW 12,000 FEET WITH NO
      SIGNIFICANT WEATHER AND/OR OBSTRUCTIONS TO VISIBILITY.

  * THESE STATIONS ARE PART OF THE UNIVERSITY OF SOUTH ALABAMA
    MESONET AND ARE NOT UNDER NWS OR FAA QUALITY CONTROL.

ALZ061>064-271500-
COASTAL ALABAMA

CITY           SKY/WX    TMP DP  RH WIND       PRES   REMARKS
MOBILE REG APT CLOUDY    80  71  74 SE14      30.03F
BROOKLEY FIELD CLOUDY    79  72  79 SE15      30.03F
USA CAMPUS*    NOT AVBL
DOG RIVER*     NOT AVBL


CITY           SKY/WX    TMP DP  RH WIND       PRES   REMARKS
MOUNT VERNON*  NOT AVBL
SARALAND*      NOT AVBL
BAY MINETTE*   NOT AVBL
LOXLEY*        NOT AVBL
ROBERTSDALE*   NOT AVBL
FAIRHOPE*      NOT AVBL
ELBERTA*       NOT AVBL
FOLEY*         NOT AVBL
GRAND BAY*     NOT AVBL
DAUPHIN ISLND* NOT AVBL
BON SCOUR NWR* NOT AVBL
GULF SHORES    CLOUDY    79  71  77 E8        30.03S

$$

ALZ051>060-271500-
INTERIOR SOUTHWEST AND SOUTH CENTRAL ALABAMA

CITY           SKY/WX    TMP DP  RH WIND       PRES   REMARKS
GREENVILLE     CLOUDY    72  69  90 SE6       30.08R FOG
EVERGREEN      CLOUDY    72  71  97 SE6       30.07S
CASTLEBERRY*   NOT AVBL
ATMORE*        NOT AVBL
DIXIE*         NOT AVBL
ANDALUSIA/OPP  MOSUNNY   80  68  66 VRB6      30.08S
ANDALUSIA*     NOT AVBL
FLORALA APT    SUNNY     77  65  66 E5        30.09S
FLORALA*       NOT AVBL

$$

FLZ001>006-271500-
WESTERN FLORIDA PANHANDLE

CITY           SKY/WX    TMP DP  RH WIND       PRES   REMARKS
PENSACOLA      PTSUNNY   81  70  69 E13       30.04S
NAS PENSACOLA  PTSUNNY   82  65  56 SE16      30.03S
MILTON         PTSUNNY   77  72  84 E8        30.06S
WHTNG S FIELD  MOSUNNY   80  72  76 E8        30.05F


CITY           SKY/WX    TMP DP  RH WIND       PRES   REMARKS
WALNUT HILL*   NOT AVBL
JAY*           NOT AVBL
DUKE FIELD     MOSUNNY   76  74  92 SE3       30.05S
CRESTVIEW      MOSUNNY   78  71  79 NE5       30.08S
VALPARAISO     MOSUNNY   76  69  77 E3        30.06S
DESTIN         MOSUNNY   79  72  79 E5        30.06S

$$

MSZ076-079-271500-
INTERIOR SOUTHEAST MISSISSIPPI

CITY           SKY/WX    TMP DP  RH WIND       PRES   REMARKS
LEAKESVILLE*   NOT AVBL
AGRICOLA*      NOT AVBL

$$

MARINE OBSERVATIONS

STATION/POSITION TIME  TEMP    WIND        PRES    WAVE
                       AIR SEA DIR/SP/G            HT/PER
                 (UTC) (F)     (DEG/KT/KT) (MB)    (FT/S)
PASCAGOULA       1300   80     150/ 13/ 16 1015.9R
PETIT BOIS ISLND 1300   79     140/ 11/ 14 1016.8R
GRAND BAY        1200   79     140/ 10     1017.0S
KATRINA CUT      1300   78     140/ 13     1017.3R
CEDAR POINT      1300   78     140/ 11     1016.6R
E DAUPHIN ISLAND 1400   78     120/ 17/ 19 1016.1S
MIDDLE BAY LIGHT 1300   77     110/ 11     1016.3R
USCG MOBILE BAY  1300   76 80  130/  7/ 10 1017.3R
STATE DOCKS      1300   76 80              1016.7R
MEAHER PARK      1300   74     100/  4     1016.6R
WEEKS BAY        1200   71                   N/A
FORT MORGAN      1300   78     140/ 13/ 16 1016.3R
12 S ORANGE BCH  1350   78 80  110/ 14/ 16 1016.1R   3/ 6
PENSACOLA BAY    1300      80   90/  1/  5 1017.4R
64 S DAUPHIN ISL 1300   78 78  120/ 12/ 14 1016.0R

$$

SELECTED LOCATIONS ACROSS THE REGION

CITY           SKY/WX    TMP DP  RH WIND       PRES   REMARKS
NEW ORLEANS    CLOUDY    81  71  71 SE9       29.97R
GULFPORT       MOSUNNY   83  64  52 SE15      29.98F
PASCAGOULA AP  MOSUNNY   81  69  67 SE16      30.01S
PASCAGOULA*    NOT AVBL
HATTIESBURG    CLOUDY    79  71  76 SE13      29.99F
LAUREL         CLOUDY    75  70  83 S7        30.00S
MERIDIAN       CLOUDY    80  70  71 S9        30.00F
JACKSON        CLOUDY    76  70  82 S10       29.97R
MONTGOMERY     MOSUNNY   80  69  69 E9        30.07S
TROY           SUNNY     78  66  66 SE5       30.09S
KINSTON*       NOT AVBL
GENEVA*        NOT AVBL
ASHFORD*       NOT AVBL
DOTHAN         SUNNY     76  64  66 E9        30.13S
PANAMA CITY    SUNNY     79  67  66 E10       30.06S

$$





USA.gov is the U.S. government's official web portal to all federal, state and local government web resources and services.